Temperature
14 13 13 14 14 14 14 14 14 14 14 14 14 14 15 14 14 15 15 15 15 15 15 15 15 15 14 14 15 14 14 14 14 14 14 14 14 15 15 15 15 14 14
14 13 13 13 13 14 14 14 14 14 14 14 14 14 14 14 14 14 15 15 15 15 15 15 15 14 14 14 14 14 14 14 14 14 14 14 14 14 14 14 14 14 14
13 13 13 13 13 13 14 14 14 14 14 14 14 14 14 14 14 14 14 14 14 14 15 14 15 14 14 14 14 14 14 14 14 14 14 14 14 14 14 14 14 14 14
13 13 13 13 13 13 13 13 14 14 14 14 14 14 14 14 14 14 14 14 14 14 14 14 14 14 14 14 14 14 14 14 14 14 14 14 14 14 14 14 14 14 14
13 13 13 13 13 13 13 13 13 13 14 14 14 14 14 14 14 14 14 14 14 14 14 14 14 14 14 14 14 14 14 14 14 14 14 14 14 14 14 14 14 14 14
13 13 13 13 13 13 13 13 13 13 13 13 13 13 13 14 14 14 14 14 14 14 14 14 14 14 14 14 13 13 13 13 13 13 13 13 13 13 14 14 13 13 14
13 13 13 13 13 13 13 13 13 13 13 13 13 13 13 13 13 13 13 14 14 14 14 14 14 14 14 13 13 13 13 13 13 13 13 13 13 13 13 13 13 13 13
12 12 12 12 12 12 13 13 13 13 13 13 13 13 13 13 13 13 13 13 13 13 14 13 14 14 13 13 13 13 13 13 13 13 13 13 13 13 13 13 13 13 13
12 12 12 12 12 12 12 12 13 13 13 13 13 13 13 13 13 13 13 13 13 13 13 13 13 13 13 13 13 13 13 13 13 13 13 13 13 13 13 13 13 13 13
12 12 12 12 12 12 12 12 12 12 12 12 12 12 13 13 12 13 13 13 13 13 13 13 13 13 13 13 13 13 13 13 12 13 13 13 13 13 13 12 12 12 12
12 12 12 12 12 12 12 12 12 12 12 12 12 12 12 12 12 12 12 12 12 12 13 13 13 13 12 12 12 12 12 12 12 12 12 12 12 12 12 12 12 12 12
12 12 12 12 12 12 12 12 12 12 12 12 12 12 12 12 12 12 12 12 12 12 12 12 12 12 12 12 12 12 12 12 12 12 12 12 12 12 12 12 12 12 12
12 12 12 12 12 11 11 11 11 11 11 11 11 11 11 11 11 12 12 12 12 12 12 12 12 12 12 12 12 12 12 12 12 12 12 12 12 12 12 12 12 12 12
12 12 11 11 11 11 11 11 11 11 11 11 11 11 11 11 11 11 11 11 11 11 11 11 11 11 11 11 11 11 11 11 11 11 11 11 11 11 11 11 11 11 11
12 11 11 11 11 11 11 11 11 11 11 11 11 11 11 11 11 11 11 11 11 11 11 11 11 11 11 11 11 11 11 11 11 11 11 11 11 11 11 11 11 11 11
11 11 11 11 11 11 11 11 10 10 10 10 10 10 10 10 11 11 11 11 11 11 11 11 11 11 10 10 10 10 10 10 11 11 11 11 11 11 11 11 11 11 10
11 11 11 11 11 10 10 10 10 10 10 10 10 10 10 10 10 10 10 10 10 10 10 10 10 10 10 10 10 10 10 10 10 10 10 10 10 10 10 10 10 10 10
11 11 11 11 10 10 10 10 10 10 10 10 10 10 10 10 10 10 10 10 10 10 10 10 10 9 9 9 9 9 9 9 10 10 10 10 10 10 10 10 10 10 10
11 11 10 10 10 10 10 10 10 10 9 9 9 9 9 9 9 9 9 9 9 9 9 9 9 9 9 9 9 9 9 9 9 9 9 10 10 10 10 10 10 10 9
10 10 10 10 10 10 10 9 9 9 9 9 9 9 9 9 9 9 9 9 9 9 9 9 8 8 8 8 8 8 8 8 9 9 9 9 9 9 9 9 9 9 9
10 10 10 10 10 10 9 9 9 9 9 9 8 8 8 8 8 8 8 8 8 8 8 8 8 8 8 8 8 8 8 8 8 8 8 8 8 8 8 8 9 9 9
10 10 10 10 9 9 9 9 9 9 9 8 8 8 8 8 8 8 8 8 8 8 8 8 8 7 7 7 7 7 7 7 7 7 7 8 8 8 8 8 8 8 8
9 9 9 9 9 9 9 9 8 8 8 8 8 8 8 8 8 8 8 8 8 8 7 7 7 7 7 7 7 7 7 6 6 6 7 7 7 7 7 7 7 7 7
9 9 9 9 9 9 8 8 8 8 8 8 8 8 8 8 8 7 7 7 7 7 7 7 7 7 7 7 6 7 7 7 6 6 6 6 6 7 7 7 7 7 7
9 9 8 8 8 8 8 8 8 8 8 8 7 7 7 7 7 7 7 7 7 7 7 7 7 7 6 6 6 6 6 6 6 6 5 6 6 6 6 6 6 6 6
8 8 8 8 8 8 8 8 7 7 7 7 7 7 7 7 7 7 7 7 7 6 6 6 6 6 6 6 6 6 6 6 6 6 6 6 5 6 6 6 6 6 6
Wind_Speed
2 2 4 5 6 6 7 7 8 8 8 8 8 8 8 7 8 8 8 8 8 8 9 10 10 10 11 11 11 12 12 13 13 13 13 13 13 14 14 14 14 14 15
3 2 4 6 6 6 7 7 7 7 7 7 7 7 7 7 7 7 7 7 7 7 8 9 9 9 10 11 11 11 12 13 13 13 13 12 12 13 13 13 13 13 14
3 3 5 6 6 6 7 6 6 6 6 7 6 6 7 6 6 7 6 6 7 7 8 9 9 9 10 10 10 11 11 12 12 12 11 10 10 11 11 12 12 13 13
4 4 5 6 6 6 6 6 5 5 6 6 6 6 6 6 5 6 6 6 6 7 7 8 9 8 9 9 9 10 10 11 10 10 9 8 8 9 10 10 11 12 12
4 5 5 7 7 6 6 5 5 5 5 5 5 4 5 5 5 5 5 6 6 6 7 7 8 7 8 8 8 9 9 9 9 9 8 7 6 8 9 10 10 11 11
4 4 5 7 7 6 5 5 4 4 4 4 4 4 4 4 4 4 5 5 5 6 6 6 7 7 7 7 8 8 8 8 8 8 6 6 5 7 9 9 10 10 10
4 4 5 6 6 6 5 5 4 3 3 3 3 3 3 3 3 3 4 5 5 5 5 6 6 6 7 7 7 7 7 8 8 7 5 5 5 6 8 9 9 10 10
4 4 5 6 6 6 5 4 4 3 3 4 4 3 3 2 2 3 4 5 5 5 5 5 6 6 6 6 6 7 7 7 6 5 4 4 5 6 8 9 9 9 10
4 4 5 4 5 5 4 4 3 3 4 4 4 4 4 3 2 2 3 4 4 4 4 5 5 6 6 6 6 7 6 6 6 5 4 4 5 6 7 8 9 9 10
3 3 4 4 4 4 4 4 4 4 4 5 5 5 5 4 4 3 3 4 3 3 4 4 4 5 6 6 6 7 6 6 5 4 3 4 4 6 7 8 9 9 9
2 2 2 3 3 3 4 4 5 5 4 5 5 5 5 5 4 4 3 4 4 3 3 4 5 5 5 5 6 6 6 4 4 3 3 4 4 6 7 8 8 9 9
3 1 1 1 2 3 3 4 5 4 4 4 4 4 5 5 4 4 3 3 3 3 3 3 4 4 4 5 5 6 5 4 4 3 2 4 5 6 6 7 8 8 8
4 2 2 1 2 3 3 3 4 4 4 4 4 4 4 4 4 4 4 3 3 3 3 2 3 3 4 5 5 5 4 4 3 2 2 3 4 5 6 7 7 8 8
4 4 2 2 2 2 3 3 3 3 3 2 2 3 4 3 3 3 3 2 3 2 3 3 3 3 4 4 4 4 4 3 2 2 2 3 4 5 6 6 7 7 7
5 4 3 2 2 2 3 2 2 2 1 1 1 2 3 2 1 2 2 2 2 3 3 3 3 3 3 4 3 3 3 3 2 2 2 3 4 5 5 6 6 7 7
6 5 4 3 3 3 3 2 2 2 1 1 1 0 1 2 2 1 1 1 2 2 3 3 3 3 3 3 3 3 3 2 2 2 2 3 3 4 5 5 6 6 7
6 5 4 4 3 3 3 3 2 2 1 1 0 0 1 2 2 2 2 1 1 2 3 3 3 3 3 3 2 2 3 2 2 2 3 3 3 3 4 4 5 6 7
4 5 4 3 4 4 3 3 2 2 2 1 0 0 1 2 2 2 2 1 1 2 3 2 2 2 2 2 2 1 2 2 2 2 3 4 4 4 3 3 5 5 5
5 5 4 4 4 4 3 3 2 2 2 1 1 0 1 1 2 2 2 1 2 2 2 2 1 2 3 3 3 3 2 2 2 3 4 5 6 6 5 5 6 6 5
4 4 4 3 3 3 3 2 1 1 1 1 1 1 1 1 2 2 2 2 2 2 1 2 2 2 3 3 4 4 3 2 3 3 3 4 5 6 6 6 6 5 5
3 3 4 4 3 3 3 3 2 2 1 1 1 1 1 1 2 2 2 2 2 2 2 3 2 3 2 2 3 2 2 2 2 2 2 3 4 5 6 6 6 6 5
4 4 4 4 4 4 3 3 2 2 2 2 1 0 1 1 1 2 2 2 2 2 2 2 3 2 1 2 3 2 1 1 2 2 1 1 1 3 4 5 5 5 5
4 4 4 4 4 3 3 2 2 2 1 1 0 0 1 0 2 2 3 3 2 3 3 3 3 3 3 1 2 3 3 2 0 1 1 1 1 1 2 3 3 3 3
4 3 3 3 3 3 3 3 4 3 2 2 2 1 1 1 1 2 2 3 3 2 3 3 3 2 4 3 1 1 2 3 2 1 1 1 1 1 1 1 1 1 2
3 3 3 3 3 3 3 4 4 2 2 1 1 1 1 1 0 1 2 3 2 2 2 3 3 3 3 4 3 2 1 1 1 2 2 1 1 0 1 1 1 1 2
1 2 2 2 2 3 3 4 4 3 3 2 2 2 1 1 1 0 1 2 2 2 2 3 3 4 3 3 3 3 3 2 2 2 2 2 2 2 1 1 2 2 3
Wind_Direction
221 247 156 132 117 104 95 90 88 91 95 97 97 98 98 98 97 99 99 96 99 102 101 100 98 96 95 96 96 96 97 95 93 90 87 86 89 91 89 86 84 84 87
176 181 146 132 122 111 101 94 88 88 96 98 96 99 102 102 101 99 100 97 95 95 99 99 98 100 99 97 98 97 96 95 92 89 84 85 89 91 90 90 90 91 89
130 131 133 127 123 117 105 100 96 95 99 100 98 99 101 100 101 99 98 101 97 94 95 97 97 102 105 103 101 101 100 97 94 92 86 84 90 94 93 92 92 92 92
123 116 122 121 121 116 106 102 103 101 102 102 102 99 99 101 101 104 101 103 101 98 94 93 95 102 108 108 106 104 104 101 97 93 87 87 93 100 100 97 95 95 95
105 106 120 120 117 113 105 98 98 101 103 104 105 105 104 103 102 103 104 104 104 103 100 95 92 102 109 110 109 106 104 105 101 96 95 93 94 105 104 101 101 98 98
104 102 118 119 115 110 105 94 86 94 101 103 106 110 109 109 104 109 106 102 106 108 110 106 100 103 111 111 111 109 105 104 103 98 100 104 108 115 112 109 109 107 104
119 104 120 118 113 111 104 93 82 87 98 103 106 111 117 114 113 109 110 112 114 111 113 119 114 112 117 114 112 110 107 105 104 103 104 116 127 126 122 118 117 113 110
118 96 108 113 107 106 103 95 84 95 99 96 94 89 91 95 110 108 114 116 117 115 118 122 128 123 117 115 114 110 108 108 107 108 115 130 137 135 132 125 122 117 111
96 85 74 84 99 102 100 92 80 74 89 88 78 71 71 66 74 101 111 119 118 119 122 125 131 131 125 117 111 108 110 109 103 110 122 143 147 144 139 131 126 122 118
95 85 73 71 82 89 95 92 80 74 72 78 75 69 70 63 67 79 103 112 121 122 126 131 134 131 124 118 113 109 108 108 102 107 119 139 145 149 143 136 131 127 122
117 101 86 75 73 83 93 91 86 84 72 68 65 66 66 62 64 71 89 101 103 107 123 132 133 130 124 118 114 109 103 105 105 109 130 145 145 145 141 140 135 131 126
193 183 141 117 96 91 93 88 83 82 72 65 66 70 74 72 69 68 70 90 95 96 117 131 126 126 113 104 107 107 99 102 106 106 144 162 162 155 145 144 138 133 131
199 198 191 176 137 110 90 89 80 79 72 66 71 78 82 76 68 63 61 66 81 86 92 103 101 103 106 107 105 104 101 97 103 104 128 155 162 155 151 147 142 138 136
195 206 203 184 151 125 110 100 95 84 73 62 63 82 85 72 65 65 65 61 74 86 91 85 88 100 107 111 113 109 104 97 99 106 116 148 156 157 154 150 147 147 145
203 208 204 185 167 147 124 119 111 103 99 87 68 76 98 98 91 71 64 65 79 96 106 99 97 101 100 97 98 104 98 97 97 109 116 131 145 152 154 152 151 151 152
210 209 199 188 176 157 153 149 141 135 138 117 87 102 121 128 121 99 83 78 72 87 106 115 121 115 109 105 94 90 97 103 101 97 104 109 123 146 153 156 156 151 147
210 205 198 189 169 167 167 167 155 149 136 112 43 174 142 147 132 121 133 116 93 104 103 105 105 104 105 101 92 80 86 101 107 93 99 105 107 125 145 148 145 149 147
198 198 198 182 167 173 174 169 153 151 139 129 183 249 180 154 145 138 143 143 123 116 113 117 125 117 115 106 90 68 66 82 91 93 93 101 103 101 107 127 134 133 142
193 190 189 179 173 178 177 167 155 149 147 142 152 206 193 155 169 152 150 155 137 121 120 141 127 129 119 105 89 68 53 57 60 74 80 90 97 96 93 93 102 101 109
189 183 178 175 180 171 163 152 142 131 137 130 161 194 177 173 171 140 137 149 141 132 129 139 138 122 123 114 89 64 43 38 55 59 74 86 93 94 92 95 96 89 94
175 179 181 178 181 165 167 173 172 183 189 194 201 169 161 167 164 147 140 142 142 156 164 154 143 131 124 126 104 73 34 35 60 56 62 75 86 94 92 91 89 88 85
183 188 187 189 186 179 179 179 174 175 191 195 198 156 156 165 176 173 160 167 161 154 151 161 151 150 139 132 134 127 90 359 22 36 60 79 72 91 92 96 97 92 88
186 194 195 192 187 184 167 137 122 109 85 105 174 249 311 233 198 190 181 169 172 168 176 177 165 159 166 162 137 150 158 201 299 359 31 62 77 97 90 97 100 104 104
206 198 189 182 177 176 162 158 163 173 185 200 204 225 281 267 200 183 175 172 175 179 179 181 170 170 166 174 148 106 147 150 164 191 332 358 55 93 158 111 117 118 124
197 186 187 172 172 168 165 167 167 179 186 177 173 197 233 275 231 193 173 166 171 176 185 179 167 174 174 174 173 167 141 115 154 176 215 253 321 276 229 209 187 184 185
178 174 168 168 179 173 169 166 170 177 178 174 183 203 222 247 240 202 179 171 174 176 187 188 178 176 177 170 168 170 170 167 182 176 193 218 238 255 254 234 205 200 207
Height
1521 1522 1523 1525 1526 1527 1527 1528 1528 1529 1530 1530 1531 1532 1532 1533 1534 1535 1535 1536 1537 1537 1538 1539 1539 1540 1540 1541 1542 1542 1543 1544 1544 1545 1546 1546 1547 1548 1548 1549 1549 1550 1550
1520 1522 1523 1524 1525 1526 1527 1528 1528 1529 1530 1530 1531 1531 1532 1533 1534 1534 1535 1536 1537 1537 1538 1539 1540 1540 1541 1542 1542 1543 1544 1544 1545 1546 1547 1547 1548 1549 1550 1550 1551 1551 1552
1519 1521 1523 1524 1525 1526 1527 1527 1528 1529 1529 1530 1531 1531 1532 1533 1534 1534 1535 1536 1537 1538 1538 1539 1540 1541 1542 1542 1543 1544 1544 1545 1546 1547 1548 1548 1549 1550 1551 1551 1552 1552 1553
1519 1521 1522 1523 1524 1525 1526 1527 1527 1528 1529 1530 1530 1531 1532 1532 1533 1534 1535 1536 1537 1538 1538 1539 1540 1541 1542 1543 1544 1544 1545 1546 1547 1547 1548 1549 1550 1551 1552 1552 1553 1553 1554
1519 1520 1522 1523 1524 1525 1525 1526 1527 1527 1528 1529 1530 1530 1531 1532 1533 1533 1534 1535 1536 1537 1538 1539 1540 1541 1542 1543 1544 1545 1545 1546 1547 1548 1549 1550 1551 1551 1552 1553 1554 1554 1555
1519 1520 1521 1522 1523 1524 1525 1525 1526 1527 1527 1528 1529 1529 1530 1531 1532 1533 1534 1535 1536 1537 1538 1539 1540 1541 1542 1543 1544 1545 1546 1547 1548 1548 1549 1550 1551 1552 1553 1553 1554 1555 1556
1519 1520 1521 1522 1522 1523 1524 1524 1525 1525 1526 1527 1527 1528 1529 1530 1531 1532 1533 1534 1535 1536 1537 1538 1540 1541 1542 1543 1544 1545 1546 1547 1548 1549 1550 1550 1551 1552 1553 1554 1554 1555 1556
1518 1519 1520 1521 1522 1522 1523 1523 1524 1524 1525 1525 1526 1527 1528 1529 1530 1531 1532 1533 1534 1535 1536 1537 1539 1540 1541 1542 1543 1545 1546 1547 1548 1549 1550 1551 1551 1552 1553 1554 1554 1555 1556
1518 1519 1520 1520 1520 1521 1522 1522 1523 1523 1524 1524 1525 1526 1527 1528 1529 1530 1531 1532 1533 1534 1535 1536 1538 1539 1540 1541 1543 1544 1545 1547 1548 1549 1550 1550 1551 1552 1553 1554 1554 1555 1556
1517 1518 1518 1519 1519 1520 1520 1521 1522 1522 1522 1523 1524 1525 1526 1527 1528 1529 1530 1531 1532 1533 1534 1535 1536 1538 1539 1540 1542 1543 1545 1546 1547 1548 1549 1550 1551 1552 1553 1554 1554 1555 1556
1516 1516 1517 1517 1518 1519 1519 1520 1520 1521 1521 1522 1523 1524 1525 1525 1527 1528 1529 1530 1531 1532 1533 1534 1535 1536 1538 1539 1541 1542 1544 1545 1546 1548 1549 1550 1551 1552 1552 1553 1554 1555 1556
1514 1515 1515 1516 1517 1517 1518 1518 1519 1520 1520 1521 1522 1522 1523 1524 1525 1526 1527 1528 1530 1531 1532 1533 1534 1535 1536 1538 1540 1541 1542 1544 1545 1547 1548 1549 1550 1551 1552 1553 1554 1555 1556
1512 1513 1514 1515 1515 1516 1516 1517 1517 1518 1518 1519 1520 1521 1522 1523 1523 1524 1525 1527 1528 1529 1530 1531 1532 1534 1535 1536 1538 1540 1541 1543 1544 1545 1547 1548 1549 1550 1551 1552 1553 1554 1555
1510 1511 1512 1513 1513 1514 1515 1515 1516 1516 1517 1518 1518 1519 1520 1521 1522 1523 1523 1525 1526 1527 1528 1529 1531 1532 1533 1535 1536 1538 1540 1541 1543 1544 1546 1547 1548 1549 1550 1551 1552 1553 1554
1508 1509 1510 1511 1511 1512 1513 1513 1514 1515 1515 1516 1517 1518 1518 1519 1520 1521 1522 1523 1524 1525 1526 1527 1529 1530 1531 1533 1535 1536 1538 1539 1541 1542 1544 1545 1547 1548 1549 1550 1551 1552 1553
1505 1507 1508 1509 1509 1510 1510 1511 1512 1513 1513 1514 1515 1516 1516 1517 1518 1519 1520 1521 1522 1523 1524 1525 1527 1528 1529 1531 1532 1534 1536 1538 1539 1541 1542 1543 1545 1546 1548 1549 1550 1551 1552
1503 1504 1505 1506 1507 1508 1508 1509 1510 1511 1511 1512 1513 1514 1514 1515 1516 1516 1518 1518 1519 1520 1522 1523 1524 1526 1527 1529 1530 1532 1534 1535 1537 1539 1540 1541 1543 1544 1546 1547 1548 1549 1550
1500 1501 1503 1503 1504 1505 1506 1507 1508 1509 1509 1510 1511 1512 1513 1513 1514 1515 1515 1516 1517 1518 1519 1521 1522 1523 1525 1526 1528 1530 1532 1533 1535 1536 1538 1539 1540 1542 1543 1545 1546 1547 1548
1497 1498 1499 1501 1502 1503 1504 1505 1506 1506 1507 1508 1509 1509 1510 1511 1512 1512 1513 1514 1515 1516 1517 1518 1520 1521 1523 1524 1526 1527 1529 1531 1532 1533 1535 1536 1538 1539 1541 1542 1544 1545 1546
1493 1495 1496 1498 1499 1500 1501 1502 1503 1504 1505 1506 1506 1507 1508 1508 1509 1510 1511 1512 1513 1514 1515 1516 1517 1519 1521 1522 1523 1525 1527 1528 1529 1531 1532 1534 1535 1536 1538 1540 1541 1543 1544
1490 1491 1493 1495 1496 1497 1498 1499 1500 1501 1503 1504 1504 1505 1505 1506 1507 1507 1508 1509 1510 1511 1512 1514 1515 1516 1518 1519 1521 1523 1524 1526 1527 1528 1529 1531 1532 1534 1536 1537 1538 1540 1541
1486 1488 1490 1491 1493 1494 1495 1496 1498 1499 1500 1501 1502 1502 1503 1504 1504 1505 1506 1507 1508 1509 1510 1511 1512 1514 1515 1516 1518 1520 1521 1524 1523 1525 1526 1528 1530 1531 1533 1534 1536 1537 1538
1483 1485 1487 1488 1490 1491 1492 1494 1495 1496 1497 1498 1499 1500 1501 1501 1502 1503 1503 1504 1505 1506 1507 1509 1510 1511 1512 1514 1516 1518 1519 1519 1520 1522 1523 1525 1527 1528 1530 1531 1533 1534 1535
1481 1483 1484 1486 1487 1488 1490 1491 1492 1493 1494 1495 1496 1498 1498 1499 1499 1500 1501 1502 1503 1504 1505 1506 1508 1509 1510 1511 1513 1514 1516 1517 1518 1519 1521 1522 1524 1525 1527 1528 1530 1531 1532
1479 1480 1482 1483 1484 1485 1487 1488 1489 1490 1491 1493 1494 1495 1495 1496 1496 1497 1498 1499 1500 1501 1502 1503 1505 1506 1507 1508 1510 1511 1512 1514 1515 1516 1517 1518 1520 1522 1524 1525 1526 1527 1529
1476 1478 1479 1480 1481 1482 1484 1485 1486 1487 1489 1490 1491 1492 1492 1493 1494 1494 1495 1496 1497 1498 1499 1500 1502 1503 1504 1505 1507 1508 1509 1510 1512 1513 1514 1515 1516 1519 1520 1522 1523 1524 1525